Flag for U.S.A. Weather past 2 weeks in Tacoma, Washington, U.S.A.

Now
40 °F

Overcast.


Feels Like: 40 °F
Forecast: 36 / 43 °F
Wind: No wind

Location: Tacoma Narrows Airport

Current Time: Dec 25, 2014 at 6:29:20 AM

Latest Report: Dec 25, 2014 at 5:53 AM


Visibility: 10 mi

Pressure: 30.15 "Hg

Humidity: 93%

Dew point: 38 °F

Location of TacomaLocation

Historic Weather in Tacoma — Graph

°F

Tacoma temperature yesterday

Maximum temperature yesterday: 44 °F (at 2:54 PM)
Minimum temperature yesterday: 38 °F (at 10:53 PM)
Average temperature yesterday: 41 °F

Past Weeks' High & Low Weather Summary

 TemperatureHumidityPressure
High66 °F (Dec 10, 9:53 AM)100% (Dec 24, 10:53 PM)30.38 "Hg (Dec 24, 10:53 PM)
Low38 °F (Dec 24, 10:53 PM)45% (Dec 15, 4:53 AM)29.14 "Hg (Dec 11, 3:53 PM)
Average47 °F83%29.89 "Hg
* Reported Dec 10 4:53 AM — Dec 25 4:53 AM, Tacoma, Weather by CustomWeather, © 2014

Note: Actual official high and low records may vary slightly from our data, if they occured in-between our weather recording intervals... More about our weather records

Advertising

Tacoma weather history for previous 24 hours

 ConditionsComfort  
Time TempWeatherWind HumidityBarometerVisibility
4:53 AM
Dec 25
41 °FMostly cloudy.No wind89%30.14 "Hg10 mi
3:53 AM41 °FPassing clouds.No wind89%30.12 "Hg10 mi
2:53 AM41 °FOvercast.No wind89%30.11 "Hg10 mi
1:53 AM41 °FLow clouds.3 mph93%30.09 "Hg10 mi
12:53 AM41 °FLow clouds.No wind93%30.08 "Hg10 mi
11:53 PM
Dec 24
40 °FLow clouds.No wind97%30.06 "Hg10 mi
10:53 PM38 °FPassing clouds.5 mph100%30.05 "Hg10 mi
9:53 PM39 °FFog.3 mph96%30.04 "Hg1 mi
8:53 PM40 °FPassing clouds.3 mph97%30.02 "Hg10 mi
7:53 PM43 °FPassing clouds.No wind89%30.00 "Hg10 mi
6:53 PM43 °FPassing clouds.No wind86%29.98 "Hg10 mi
5:53 PM44 °FOvercast.No wind82%29.97 "Hg10 mi
4:53 PM44 °FMostly cloudy.3 mph79%29.96 "Hg10 mi
3:53 PM44 °FOvercast.No wind79%29.96 "Hg10 mi
2:54 PM44 °FOvercast.3 mph79%29.93 "Hg10 mi
1:53 PM43 °FBroken clouds.6 mph82%29.93 "Hg10 mi
12:53 PM43 °FMore clouds than sun.5 mph86%29.92 "Hg10 mi
11:53 AM43 °FMore clouds than sun.6 mph82%29.91 "Hg10 mi
10:53 AM41 °FMostly cloudy.6 mph89%29.93 "Hg10 mi
9:53 AM40 °FMostly cloudy.6 mph93%29.93 "Hg10 mi
8:53 AM40 °FMostly cloudy.5 mph93%29.92 "Hg10 mi
7:53 AM39 °FMostly cloudy.7 mph93%29.90 "Hg10 mi
6:53 AM40 °FLow clouds.No wind93%29.92 "Hg10 mi
6:02 AM39 °FLight rain. Mostly cloudy.No wind93%29.93 "Hg10 mi
Weather by CustomWeather, © 2014

See weather overviewHow to use our weather pages